Погода в Туре

Погода в Туре : погода сейчас, прогноз погоды и архив. Всё, что Вы хотите узнать о погоде в Туре!

Хотите узнать прогноз погоды в Туре? Тогда Вам сюда: Погода в Туре

Поиск расширенной информации на нашем сайте:

Полезная информация: Мини погрузчик мксм 800 купить - купить мини погрузчики мксм-800.

Другие новости

Новости СМИ2

Главная страница сайта

Новости сайта

03.07.2017

Напоминаем, что на нашем специализированном сайте Метеоцентр.Азия вы можете получить высокодетализированные автоматические прогнозы погоды по пунктам России, СНГ и мира в авиационном формате (включающие направление и скорость ветра, видимость, явления погоды, количество и форму облачности, нижнюю и верхнюю границу облачности).

Рекомендуем: авиатуры в германию

Погода в Туре - сегодня

Время (UTC), дата Ветер
(°,м/с) 
Видим.   Явления Облачность Т
(°С)
Тd
(°С)
f(%) Тe
(°С)
Pmin
(гПа)
dP
(гПа)
Po
(мм)
O2
(г/м3)
Тmin Tmax R s Состояние
почвы
00 21.02.18 тихо ()   н/о  дымка  ясно 
-39.1 -41.8 75 -39  1029.1  0.5  751  355  -39.1      59  равномерный
сухой снег
100% 
03 21.02.18 310 (СЗ) 4000 м  дымка  ясно 
-38.2 -40.9 75 -39  1029.2  0.2  751  354  -39.9         
06 21.02.18 300 (СЗ) 20000 м    ясно 
-32.4 -36.2 69 -33  1027.9  -0.6  750  345           
09 21.02.18 300 (СЗ) 20000 м    ясно 
-27.8 -31.7 69 -28  1026.4  -1  750  338           
12 21.02.18 320 (СЗ) н/о    4/0 средняя, верхняя 
[Ac trans|Ci fib]
-31.2 -34.3 74 -32  1025.9  -0.8  749  343    -27.5       
15 21.02.18 340 (С) н/о    4/0 средняя, верхняя 
[Ac trans|Ci fib]
-33.6 -36.6 74 -35  1025.5  -0.8  748  346           
18 21.02.18 тихо ()   н/о    3/0 верхняя 
[Ci fib]
-36.2 -39 76 -36  1025.3  -0.4  748  350           
21 21.02.18 320 (СЗ) н/о    ясно 
-36.2 -39 76 -37  1024.9  -0.3  748  349           
00 22.02.18 320 (СЗ) н/о  слаб. снег  8/0 средняя 
[Ac As]
-35.2 -38 75 -39  1024.3  -0.5  748  348  -37    0.0  59  равномерный
сухой снег
100% 
03 22.02.18 300 (СЗ) 10 км  слаб. снег  10/0 средняя, верхняя 
[Ac As|Cs]
-34.1 -37.1 74 -35  1023.4  -0.7  747  346           
06 22.02.18 300 (СЗ) 20000 м  {снег}  8/0 средняя, верхняя 
[Ac As|Ci sp]
-29.3 -32.4 75 -33  1021.9  -1  746  339           
09 22.02.18 310 (СЗ) 10 км  слаб. снег  9/0 средняя, верхняя 
[Ac As|Ci sp]
-25.4 -28.5 75 -26  1020.7  -0.7  746  333           
12 22.02.18 тихо ()   н/о  {снег}  9/0 средняя, верхняя 
[Ac As|Ci sp]
-25.4 -28.5 75 -25  1020.7  746  333    -24.6  0.6     
15 22.02.18 тихо ()   н/о    8/0 средняя, верхняя 
[Ac trans|Ci fib]
-29.8 -32.2 80 -30  1020.8  -0.5  745  339           
18 22.02.18 тихо ()   н/о    9/0 средняя, верхняя 
[Ac trans|Ci sp]
-30.6 -33.6 75 -31  1021.5  0.6  746  340           
21 22.02.18 310 (СЗ) н/о    10/0 средняя, верхняя 
[Ac As|Ci sp]
-30.4 -33.4 75 -31  1021.9  0.5  746  340           
00 23.02.18 тихо ()   н/о  {снег}  6/0 средняя, верхняя 
[Ac trans|Ci fib]
-34.6 -37.4 76 -35  1023.3  0.8  747  347  -34.8    0.0  59  равномерный
сухой снег
100% 
03 23.02.18 тихо ()   20000 м    3/0 средняя, верхняя 
[Ac As|Cc]
-34 -36.8 76 -34  1024.5  1.4  748  346  -36.6         
06 23.02.18 тихо ()   20000 м    3/0 верхняя 
[Cs]
-28.2 -32.8 65 -28  1024.4  0.4  748  338           
09 23.02.18 тихо ()   20000 м    ясно 
-25.6 -30.3 65 -26  1024.8  0.6  749  335           
12 23.02.18 тихо ()   н/о    ясно 
-30.2 -33.2 75 -30  1026.8  1.6  750  342    -25.1       
15 23.02.18 150 (ЮВ) н/о    ясно 
-35 -38 74 -36  1028.7  1.3  751  349           
18 23.02.18 тихо ()   н/о    ясно 
-36.4 -39.4 74 -36  1029.8  752  351           
21 23.02.18 тихо ()   н/о    ясно 
-38.2 -40.9 75 -38  1031.4  1.2  752  355           
00 24.02.18 тихо ()   н/о    1/0 верхняя 
[Ci fib]
-38.4 -41.4 73 -38  1032.6  1.2  753  355  -39.2      59  равномерный
сухой снег
100% 
Время (UTC), дата Ветер
(°,м/с) 
Видим.   Явления Облачность Т
(°С)
Тd
(°С)
f(%) Тe
(°С)
Pmin
(гПа)
dP
(гПа)
Po
(мм)
O2
(г/м3)
Тmin Tmax R s Состояние
почвы

Для получения пояснительной информации подведите курсор к названию столбца.

ПОГОДА в Туре - архив

Всё, что Вы хотите узнать о погоде в Туре - удобно и подробно!

Выберите нужную дату (начиная с 1 января 2015* года) и нажмите кнопку "Найти".
Будут отображены архивные сводки погоды по пункту Тура, начиная с указанной даты.


Отображать данные в формате CSV (для использования в таблицах Excel)


Внимание! Наш архив погоды предназначен исключительно для личного некоммерческого использования в познавательных целях. Если Вам необходимы официальные справки о состоянии погоды (для производственных, юридических, коммерческих и т.п. целей), обращайтесь в органы Росгидромета.

*Примечание: данная дата относится к архиву по метеостанциям СССР (Россия, СНГ, Балтия).
Архив по метеостанциям Зарубежной Европы и Азии (кроме Китая) хранится 10 дней, по другим регионам земного шара (Китай, Африка, Америка, Австралия, Океания) - 1 день.

Тура - район местоположения метеостанции


Название, широта, долгота, высота метеостанции:
Тура 64.3°ш. 100.2°д. 168 м над ур. моря [Российская Федерация]

Дополнительная информация

В oтличие oт бoльшинства пoгoдных сайтoв мы публикуем пoдрoбную метеoинфoрмацию в детальнoм прoфессиoнальнoм фoрмате.

Характеристики температуры и влажнoсти вoздуха измеряются на высoте 2 м в тени вдали oт зданий и деревьев.
Скoрoсть ветра измеряется на высoте 10 м (на урoвне рoста челoвека скoрoсть ветра ниже в 1.5-2 раза). Если метеoстанция нахoдится в гoрoде или в лесу, тo скoрoсть ветра занижена на 2-4 м/с пo сравнению с oткрытым местoм. Скoрoсть ветра над акватoриями крупных рек и oзёр, а также на вершинах хoлмoв на 2-5 м/с выше, чем в oбычных услoвиях.
Атмoсфернoе давление в разных тoчках местнoсти мoжет значительнo oтличаться oт давления на метеoстанции, в зависимoсти oт услoвий рельефа (при пoдъёме на 10 м давление пoнижается примернo на 1 мм рт.ст.).